DW0805 Ramloese DK current weather conditions

sailwx.info

Wind from 262 at 6 knots gusting 10

Air temperature 10.6° C
Dewpoint 9.9° C

Last reported at 2017-Mar-30 19:35 UTC.
Time now 2017-Mar-30 20:28 UTC

Location: N 56°01' E 012°05'.
View on Google Maps.

See reports from other nearby stations

  
Tides and Currents Weather Stations Pressure Air Temp Water Temp Dewpoint Dewpoint Depression Visibility Wind Speed Wind Dir Waves Ship Positions
date/time (UTC)wind fromknots sea level pressurealtimeterstation pressurevisibilityair tempwater tempwave heightnotes
2017-Mar-30 19:35 262 6 gusting 10 10.6
2017-Mar-30 19:25 263 5 gusting 8 10.6
2017-Mar-30 19:15 243 4 gusting 8 10.6
2017-Mar-30 19:05 250 6 gusting 8 10.6
2017-Mar-30 18:55 256 6 gusting 12 10.6
2017-Mar-30 18:45 261 7 gusting 13 10.6
2017-Mar-30 18:25 253 7 gusting 13 11.1
2017-Mar-30 18:05 258 6 gusting 13 11.1
2017-Mar-30 17:55 260 7 gusting 12 11.1
2017-Mar-30 17:45 252 6 gusting 10 11.1
2017-Mar-30 17:25 251 5 gusting 13 11.1
2017-Mar-30 17:05 307 6 gusting 11 11.1
2017-Mar-30 16:55 256 8 gusting 13 11.1
2017-Mar-30 16:45 252 6 gusting 12 11.1
2017-Mar-30 16:35 303 6 gusting 11 11.1
2017-Mar-30 16:25 259 8 gusting 13 11.1
2017-Mar-30 16:05 259 6 gusting 13 11.1
2017-Mar-30 15:55 297 7 gusting 11 10.6
2017-Mar-30 15:35 289 6 gusting 10 10.6
2017-Mar-30 15:25 228 6 gusting 12 10.6
2017-Mar-30 14:45 298 10 gusting 13 9.4
2017-Mar-30 14:35 234 8 gusting 13 9.4
2017-Mar-30 14:25 247 8 gusting 11 9.4
2017-Mar-30 14:15 287 9 gusting 13 9.4
2017-Mar-30 14:05 236 8 gusting 13 9.4
2017-Mar-30 13:55 227 7 gusting 13 9.4
2017-Mar-30 13:45 217 6 gusting 13 8.9
2017-Mar-30 13:35 283 8 gusting 13 8.9
2017-Mar-30 13:25 236 6 gusting 11 8.9
2017-Mar-30 13:15 298 6 gusting 10 8.9
2017-Mar-30 13:05 228 8 gusting 11 8.9
2017-Mar-30 12:45 215 6 gusting 10 8.3
2017-Mar-30 12:25 197 8 gusting 13 7.8
2017-Mar-30 12:15 190 8 gusting 13 7.8
2017-Mar-30 12:05 204 8 gusting 13 7.8
2017-Mar-30 11:55 312 7 gusting 13 7.8
2017-Mar-30 11:45 198 10 gusting 14 7.8
2017-Mar-30 11:35 293 10 gusting 15 7.8
2017-Mar-30 11:25 181 6 gusting 13 7.8
2017-Mar-30 11:15 205 7 gusting 12 7.2
2017-Mar-30 11:05 183 6 gusting 12 7.2
2017-Mar-30 10:45 231 5 gusting 8 7.2
2017-Mar-30 10:35 245 5 gusting 10 7.2
2017-Mar-30 10:25 174 3 gusting 10 7.2
2017-Mar-30 09:55 301 5 gusting 10 7.2
2017-Mar-30 09:45 158 5 gusting 10 7.2
2017-Mar-30 09:35 218 5 gusting 11 7.2
2017-Mar-30 09:15 162 5 gusting 8 6.7
2017-Mar-30 09:05 167 4 gusting 8 6.7
2017-Mar-30 08:55 273 2 gusting 10 6.7
2017-Mar-30 08:46 163 2 gusting 10 6.7
2017-Mar-30 08:35 166 3 gusting 10 6.7
2017-Mar-30 08:25 268 4 gusting 8 6.7
2017-Mar-30 08:15 158 4 gusting 10 6.7
2017-Mar-30 07:55 152 4 gusting 8 6.7
2017-Mar-30 07:45 154 5 gusting 10 6.7
2017-Mar-30 07:35 163 5 gusting 10 6.1
2017-Mar-30 07:25 141 3 gusting 6 6.1
2017-Mar-30 07:15 165 2 gusting 6 6.1
2017-Mar-30 07:05 167 2 gusting 6 6.1
2017-Mar-30 06:35 161 3 gusting 6 5.6
2017-Mar-30 05:55 180 2 gusting 7 5.6
2017-Mar-30 05:25 143 2 gusting 6 5.6
2017-Mar-30 05:05 137 2 gusting 6 5.0
2017-Mar-30 04:55 113 2 gusting 4 5.0
2017-Mar-30 04:45 105 1 gusting 2 5.0
2017-Mar-30 04:25 086 1 gusting 2 5.0
2017-Mar-30 04:15 055 1 gusting 2 5.0
2017-Mar-30 04:05 053 2 gusting 2 5.0
2017-Mar-30 03:55 341 0 gusting 1 5.0
2017-Mar-30 03:35 340 5.0
2017-Mar-30 03:25 340 5.0
2017-Mar-30 03:15 340 5.0
2017-Mar-30 02:55 340 5.0
2017-Mar-30 02:45 340 5.0
2017-Mar-30 02:25 342 5.0
2017-Mar-30 02:05 340 5.0
2017-Mar-30 01:55 340 4.4
2017-Mar-30 01:45 340 4.4
2017-Mar-30 01:35 340 5.0
2017-Mar-30 01:25 340 5.0
2017-Mar-30 01:05 342 5.0
2017-Mar-30 00:55 340 5.0
2017-Mar-30 00:45 342 5.0
2017-Mar-30 00:25 340 5.0
2017-Mar-30 00:15 340 5.0
2017-Mar-30 00:05 340 5.0
2017-Mar-29 23:55 340 5.0
2017-Mar-29 23:45 340 0 gusting 1 5.0
2017-Mar-29 23:35 340 5.0
2017-Mar-29 23:25 340 5.0
2017-Mar-29 23:15 340 5.0
2017-Mar-29 23:05 340 5.0
2017-Mar-29 22:45 354 1 gusting 2 5.0
2017-Mar-29 22:35 357 5.0
2017-Mar-29 22:25 357 5.0
2017-Mar-29 22:15 357 5.0
2017-Mar-29 21:55 357 5.0
2017-Mar-29 21:45 357 5.0
2017-Mar-29 21:25 357 5.0
2017-Mar-29 21:05 357 0 gusting 4 5.0
2017-Mar-29 20:55 357 0 gusting 2 5.0
2017-Mar-29 20:45 357 1 gusting 2 5.0
2017-Mar-29 20:35 357 1 gusting 4 5.6
2017-Mar-29 20:25 357 1 gusting 4 5.6
2017-Mar-29 20:15 352 2 gusting 6 5.6
2017-Mar-29 20:05 340 2 gusting 5 5.6
2017-Mar-29 19:15 317 0 gusting 4 5.6
2017-Mar-29 19:05 319 0 gusting 2 5.6
2017-Mar-29 18:55 314 1 gusting 2 5.6
2017-Mar-29 18:45 313 1 gusting 5 5.6
2017-Mar-29 18:35 320 2 gusting 4 5.6
2017-Mar-29 18:25 317 1 gusting 4 5.6
2017-Mar-29 18:05 317 2 gusting 4 5.6
2017-Mar-29 17:55 319 2 gusting 5 5.6
2017-Mar-29 17:45 322 4 gusting 7 5.6
2017-Mar-29 17:35 321 3 gusting 6 5.6
2017-Mar-29 17:15 324 4 gusting 8 5.6
2017-Mar-29 16:55 316 2 gusting 6 5.6
2017-Mar-29 16:35 326 2 gusting 6 5.6
2017-Mar-29 16:25 335 2 gusting 5 5.6
2017-Mar-29 16:15 308 2 gusting 6 5.6
2017-Mar-29 16:05 329 4 gusting 7 5.6
2017-Mar-29 15:55 344 4 gusting 7 5.6
2017-Mar-29 15:45 325 4 gusting 12 5.6
2017-Mar-29 15:35 341 7 gusting 13 5.6
2017-Mar-29 15:25 337 11 gusting 18 6.1
2017-Mar-29 15:05 317 5 gusting 10 6.1
2017-Mar-29 14:15 325 5 gusting 12 6.1
2017-Mar-29 14:05 335 6 gusting 12 6.1
2017-Mar-29 13:45 297 6 gusting 13 6.1
2017-Mar-29 13:35 291 6 gusting 13 6.1
2017-Mar-29 13:25 305 6 gusting 12 6.1
2017-Mar-29 13:15 281 7 gusting 13 6.1
2017-Mar-29 13:05 280 6 gusting 14 6.1
2017-Mar-29 12:35 274 8 gusting 15 6.1
2017-Mar-29 12:25 281 10 gusting 17 6.1
2017-Mar-29 12:15 287 8 gusting 13 6.1
2017-Mar-29 12:05 279 7 gusting 15 6.1
2017-Mar-29 11:45 268 7 gusting 17 6.1
2017-Mar-29 11:35 284 9 gusting 13 6.1
2017-Mar-29 11:15 335 7 gusting 12 6.1
2017-Mar-29 11:05 335 5 gusting 12 5.6
2017-Mar-29 10:55 315 6 gusting 12 5.6
2017-Mar-29 10:35 315 6 gusting 11 5.6
2017-Mar-29 10:25 316 7 gusting 12 5.0
2017-Mar-29 10:05 297 3 gusting 12 5.0
2017-Mar-29 09:45 302 4 gusting 10 5.0
2017-Mar-29 09:25 335 7 gusting 10 5.0
2017-Mar-29 09:05 267 6 gusting 11 5.0
2017-Mar-29 08:55 269 6 gusting 12 5.0
2017-Mar-29 08:45 303 4 gusting 11 5.0
2017-Mar-29 08:25 282 5 gusting 10 4.4
2017-Mar-29 08:15 300 4 gusting 11 4.4
2017-Mar-29 08:05 308 4 gusting 10 4.4
2017-Mar-29 07:55 323 4 gusting 10 4.4
2017-Mar-29 07:45 285 3 gusting 8 4.4
2017-Mar-29 07:35 311 4 gusting 6 4.4
2017-Mar-29 07:25 335 4 gusting 7 4.4
2017-Mar-29 06:45 305 2 gusting 6 3.9
2017-Mar-29 06:15 332 2 gusting 6 3.9
2017-Mar-29 06:05 313 2 gusting 7 3.9
2017-Mar-29 05:55 335 4 gusting 11 3.9
2017-Mar-29 05:45 296 4 gusting 13 3.9
2017-Mar-29 05:35 281 6 gusting 13 3.9
2017-Mar-29 05:25 296 8 gusting 12 3.9
2017-Mar-29 05:15 298 8 gusting 13 3.9
2017-Mar-29 05:05 317 6 gusting 11 3.9
2017-Mar-29 04:55 314 5 gusting 10 3.9
2017-Mar-29 04:45 307 4 gusting 8 3.9
2017-Mar-29 04:35 286 2 gusting 7 3.9
2017-Mar-29 04:25 293 2 gusting 6 3.9
2017-Mar-29 04:15 287 4 gusting 6 3.9
2017-Mar-29 04:05 281 4 gusting 8 3.9
2017-Mar-29 03:45 243 2 gusting 6 3.3
2017-Mar-29 03:25 213 1 gusting 2 3.3
2017-Mar-29 03:15 213 2 gusting 5 3.3
2017-Mar-29 03:05 213 1 gusting 4 3.3
2017-Mar-29 02:25 213 4 gusting 5 3.3
2017-Mar-29 02:15 206 2 gusting 5 3.3
2017-Mar-29 01:55 192 2 gusting 4 3.9
2017-Mar-29 01:35 192 0 gusting 4 3.9
2017-Mar-29 01:25 192 2 gusting 4 3.9
2017-Mar-29 01:05 190 1 gusting 5 3.9
2017-Mar-29 00:45 190 1 gusting 4 3.9
2017-Mar-29 00:35 190 4 gusting 6 4.4
2017-Mar-29 00:15 195 2 gusting 5 4.4
2017-Mar-29 00:05 198 2 gusting 5 5.0
2017-Mar-28 23:55 203 2 gusting 5 5.0
2017-Mar-28 23:45 204 3 gusting 5 5.0
2017-Mar-28 23:35 204 4 gusting 5 5.0
2017-Mar-28 23:25 200 4 gusting 6 5.0
2017-Mar-28 22:55 192 0 gusting 6 5.0
2017-Mar-28 22:25 230 2 gusting 5 5.6
2017-Mar-28 22:15 270 1 gusting 4 5.6
2017-Mar-28 22:05 276 2 gusting 4 5.6
2017-Mar-28 21:55 292 0 gusting 2 5.0
2017-Mar-28 21:45 292 5.0
2017-Mar-28 21:25 307 1 gusting 2 5.0
2017-Mar-28 21:15 307 0 gusting 2 5.0
2017-Mar-28 21:05 307 5.6
2017-Mar-28 20:55 307 5.6
2017-Mar-28 20:45 308 5.0
2017-Mar-28 20:35 307 5.0
2017-Mar-28 20:15 307 5.0
2017-Mar-28 20:05 307 5.0